sat.trackr.live / text

‹ back to catalog

SZ-21 MODULE

NORAD 66515 · 2025-246C

PAYLOAD ACTIVE UNKNOWN

§ Identity

Operator
Country
PRC
Launch date
2025-10-31
Launch site
JSC
Launch vehicle
Mass (kg)
RCS (m²)

Purposes: station

External: N2YO · Heavens-Above · Gunter

§ Orbital elements

Epoch: 2026-09-19T18:57:53.446752Z

Period
90.80 min
Inclination
41.4702°
Eccentricity
0.0011479
Mean motion
15.85904869 rev/d
Perigee alt
306.1 km
Apogee alt
321.5 km
Semi-major
6,691.9 km
B*
2.6788e-4
RAAN
74.2737°
Arg perigee
331.5770°
Mean anomaly
28.4450°
Rev number
4,871

§ Raw data

SZ-21 MODULE1 66515U 25246C   26262.79020193  .00068397  00000+0  26788-3 0  99972 66515  41.4702  74.2737 0011479 331.5770  28.4450 15.85904869 48719

JSON: /api/v1/satellites/66515 · /tle

For live sub-satellite position, see the globe view (requires WebGL).

§ Visibility from observer

Set your observer location to see the next 7 days of passes ≥ 10°. The values pass through the URL so the page stays shareable.

No JS? Fill the form by hand. The geolocation button needs JavaScript.